EWG86GR EDDS-LIMC

Flight info

Callsign EWG86GR
Flight time N/A
Altitude 30000
Route ROTWE5B/25 ROTWE Y126 TUBLO N850 NATOR DCT TRA DCT BASGO Z424 RIXUV
Aircraft A319/M-SDE3FGHIRWY/LB1

Departure

Time 2026-05-06 18:36
Airport Stuttgart Airport (EDDS)

Arrival

Time N/A
Airport Milan Malpensa International Airport (LIMC)
Time Latitude Longitude Altitude Speed Heading
2026-05-06 17:55 48.68898 9.19427 1316 ft 0 kts 344°
2026-05-06 17:55 48.68915 9.19512 1315 ft 0 kts 344°
2026-05-06 18:12 48.68915 9.19513 1315 ft 0 kts 344°
2026-05-06 18:21 48.68893 9.19522 1314 ft 4 kts 344°
2026-05-06 18:21 48.68869 9.19532 1312 ft 2 kts 344°
2026-05-06 18:21 48.68847 9.19537 1311 ft 4 kts 26°
2026-05-06 18:22 48.68831 9.19510 1311 ft 4 kts 72°
2026-05-06 18:22 48.68824 9.19473 1312 ft 4 kts 74°
2026-05-06 18:22 48.68817 9.19434 1313 ft 4 kts 74°
2026-05-06 18:22 48.68814 9.19420 1313 ft 1 kts 74°
2026-05-06 18:26 48.68814 9.19421 1313 ft 1 kts 74°
2026-05-06 18:26 48.68817 9.19438 1312 ft 4 kts 74°
2026-05-06 18:26 48.68827 9.19492 1312 ft 7 kts 74°
2026-05-06 18:26 48.68845 9.19586 1310 ft 11 kts 74°
2026-05-06 18:27 48.68870 9.19721 1307 ft 16 kts 74°
2026-05-06 18:27 48.68889 9.19851 1303 ft 12 kts 98°
2026-05-06 18:27 48.68816 9.19938 1296 ft 16 kts 102°
2026-05-06 18:27 48.68855 9.20117 1293 ft 20 kts 74°
2026-05-06 18:28 48.68888 9.20294 1289 ft 17 kts 74°
2026-05-06 18:28 48.68917 9.20448 1285 ft 15 kts 73°
2026-05-06 18:28 48.68952 9.20629 1280 ft 20 kts 74°
2026-05-06 18:28 48.68994 9.20859 1276 ft 25 kts 74°
2026-05-06 18:29 48.69043 9.21114 1270 ft 23 kts 74°
2026-05-06 18:29 48.69092 9.21372 1271 ft 28 kts 74°
2026-05-06 18:29 48.69145 9.21650 1256 ft 25 kts 74°
2026-05-06 18:29 48.69198 9.21926 1256 ft 30 kts 74°
2026-05-06 18:30 48.69253 9.22216 1251 ft 23 kts 74°
2026-05-06 18:30 48.69297 9.22448 1236 ft 25 kts 74°
2026-05-06 18:30 48.69348 9.22722 1231 ft 29 kts 74°
2026-05-06 18:30 48.69406 9.23022 1225 ft 32 kts 74°
2026-05-06 18:31 48.69459 9.23304 1219 ft 22 kts 74°
2026-05-06 18:31 48.69504 9.23541 1214 ft 25 kts 74°
2026-05-06 18:31 48.69553 9.23799 1209 ft 20 kts 74°
2026-05-06 18:31 48.69587 9.23980 1205 ft 19 kts 74°
2026-05-06 18:32 48.69610 9.24148 1200 ft 16 kts 101°
2026-05-06 18:32 48.69565 9.24274 1194 ft 8 kts 126°
2026-05-06 18:32 48.69518 9.24308 1191 ft 2 kts 162°
2026-05-06 18:32 48.69503 9.24315 1191 ft 0 kts 162°
2026-05-06 18:33 48.69501 9.24316 1191 ft 2 kts 162°
2026-05-06 18:33 48.69466 9.24332 1190 ft 8 kts 164°
2026-05-06 18:34 48.69410 9.24351 1190 ft 9 kts 180°
2026-05-06 18:34 48.69388 9.24314 1191 ft 0 kts 255°
2026-05-06 18:35 48.69387 9.24310 1191 ft 2 kts 255°
2026-05-06 18:35 48.69344 9.24077 1196 ft 54 kts 254°
2026-05-06 18:35 48.69179 9.23209 1213 ft 117 kts 254°
2026-05-06 18:36 48.68923 9.21853 1501 ft 140 kts 253°
2026-05-06 18:36 48.68676 9.20429 2191 ft 140 kts 255°
2026-05-06 18:36 48.68416 9.19019 2815 ft 143 kts 254°
2026-05-06 18:36 48.68123 9.17454 3165 ft 165 kts 254°
2026-05-06 18:37 48.67785 9.15666 3476 ft 190 kts 254°
2026-05-06 18:37 48.67395 9.13622 3958 ft 215 kts 254°
2026-05-06 18:37 48.66956 9.11316 4513 ft 240 kts 255°
2026-05-06 18:37 48.66480 9.08843 5091 ft 249 kts 254°
2026-05-06 18:38 48.65991 9.06306 5677 ft 253 kts 254°
2026-05-06 18:38 48.65496 9.03729 6272 ft 257 kts 253°
2026-05-06 18:38 48.64993 9.01116 6835 ft 261 kts 253°
2026-05-06 18:38 48.64477 8.98463 7412 ft 264 kts 253°
2026-05-06 18:39 48.63955 8.95787 7992 ft 267 kts 253°
2026-05-06 18:39 48.63300 8.93153 8583 ft 270 kts 239°
2026-05-06 18:39 48.62056 8.91013 9189 ft 273 kts 222°
2026-05-06 18:40 48.59145 8.87154 10364 ft 288 kts 221°
2026-05-06 18:40 48.57607 8.85131 10935 ft 299 kts 221°
2026-05-06 18:40 48.56009 8.83032 11520 ft 310 kts 221°
2026-05-06 18:40 48.54359 8.80864 12114 ft 319 kts 221°
2026-05-06 18:41 48.52675 8.78651 12711 ft 323 kts 221°
2026-05-06 18:41 48.50970 8.76409 13327 ft 326 kts 221°
2026-05-06 18:41 48.49254 8.74151 13925 ft 329 kts 221°
2026-05-06 18:41 48.47524 8.71878 14483 ft 332 kts 221°
2026-05-06 18:42 48.45776 8.69586 15048 ft 335 kts 221°
2026-05-06 18:42 48.44006 8.67266 15625 ft 339 kts 221°
2026-05-06 18:42 48.42225 8.64933 16224 ft 340 kts 221°
2026-05-06 18:42 48.40431 8.62585 16838 ft 344 kts 220°
2026-05-06 18:43 48.38619 8.60220 17459 ft 346 kts 221°
2026-05-06 18:43 48.36789 8.57833 18089 ft 350 kts 220°
2026-05-06 18:43 48.34943 8.55424 18641 ft 353 kts 220°
2026-05-06 18:43 48.33083 8.53000 19205 ft 355 kts 220°
2026-05-06 18:44 48.31203 8.50547 19666 ft 362 kts 220°
2026-05-06 18:44 48.29289 8.48057 20130 ft 367 kts 220°
2026-05-06 18:44 48.27353 8.45542 20669 ft 370 kts 220°
2026-05-06 18:44 48.25395 8.43014 21146 ft 373 kts 220°
2026-05-06 18:45 48.23442 8.40487 21563 ft 378 kts 220°
2026-05-06 18:45 48.21439 8.37887 22051 ft 383 kts 219°
2026-05-06 18:45 48.19269 8.35568 22534 ft 386 kts 207°
2026-05-06 18:45 48.16790 8.34000 23010 ft 389 kts 195°
2026-05-06 18:46 48.14122 8.33299 23479 ft 392 kts 182°
2026-05-06 18:46 48.11403 8.33497 23982 ft 392 kts 172°
2026-05-06 18:46 48.08721 8.34159 24583 ft 390 kts 171°
2026-05-06 18:46 48.06038 8.34811 25095 ft 390 kts 172°
2026-05-06 18:47 48.03357 8.35452 25548 ft 392 kts 172°
2026-05-06 18:47 48.00649 8.36095 25938 ft 395 kts 172°
2026-05-06 18:47 47.97936 8.36743 26386 ft 397 kts 172°
2026-05-06 18:47 47.95194 8.37403 26731 ft 402 kts 171°
2026-05-06 18:48 47.92419 8.38074 27193 ft 404 kts 171°
2026-05-06 18:48 47.89650 8.38745 27752 ft 403 kts 172°
2026-05-06 18:48 47.86870 8.39416 28187 ft 406 kts 172°
2026-05-06 18:48 47.84079 8.40082 28700 ft 407 kts 173°
2026-05-06 18:49 47.81273 8.40747 29126 ft 410 kts 173°
2026-05-06 18:49 47.78445 8.41425 29520 ft 413 kts 172°
2026-05-06 18:49 47.75605 8.42114 29874 ft 416 kts 172°
2026-05-06 18:49 47.72779 8.42794 29919 ft 404 kts 173°
2026-05-06 18:50 47.70060 8.43455 29929 ft 388 kts 174°
2026-05-06 18:50 47.67430 8.43770 29925 ft 372 kts 182°
2026-05-06 18:50 47.64864 8.43819 29927 ft 367 kts 182°
2026-05-06 18:51 47.59783 8.43922 29923 ft 364 kts 182°